sat.trackr.live / text

‹ back to catalog

STARLINK-33712

NORAD 63797 · 2025-091Y

PAYLOAD ACTIVE UNKNOWN

§ Identity

Operator
Country
US
Launch date
2025-05-02
Launch site
AFETR
Launch vehicle
Mass (kg)
RCS (m²)

Purposes: comms

External: N2YO · Heavens-Above · Gunter

§ Orbital elements

Epoch: 2026-05-24T22:45:33.805152Z

Period
94.27 min
Inclination
43.0028°
Eccentricity
0.0001682
Mean motion
15.27571909 rev/d
Perigee alt
481.9 km
Apogee alt
484.2 km
Semi-major
6,861.2 km
B*
4.0079e-4
RAAN
345.5016°
Arg perigee
290.3149°
Mean anomaly
69.7522°
Rev number
6,052

§ Raw data

STARLINK-337121 63797U 25091Y   26144.94830793  .00010780  00000+0  40079-3 0  99972 63797  43.0028 345.5016 0001682 290.3149  69.7522 15.27571909 60520

JSON: /api/v1/satellites/63797 · /tle

For live sub-satellite position, see the globe view (requires WebGL).

§ Visibility from observer

Set your observer location to see the next 7 days of passes ≥ 10°. The values pass through the URL so the page stays shareable.

No JS? Fill the form by hand. The geolocation button needs JavaScript.